Theta_e
318 319 319 320 321 321 322 322 322 322 322 322 322 323 323 323 323 324 323 324 323 324 324 324 326 326 326 327 327 327 325 309 312 309 306 308 318 329 332 335 334 335 331 307 305 305 303 301 304 302 303 302 302 301 304 305 302 295 292 285 286 284 288 290 290 291 294 293 292 293 294 295 292 293 296 297 298 294 295 296 297 297 298 299 300 305 306 308
318 318 318 319 320 321 321 321 322 321 321 321 321 322 322 323 323 323 323 323 323 323 324 324 325 326 326 326 327 327 317 311 308 308 309 320 336 338 337 337 335 335 322 307 303 301 301 302 301 301 301 301 304 301 305 302 303 294 289 288 286 285 290 292 292 293 293 292 293 293 292 293 295 295 296 295 293 292 294 297 297 296 297 299 300 300 305 308
318 318 318 318 319 320 320 320 321 321 321 320 320 321 321 321 322 322 322 323 323 323 324 324 325 325 326 326 326 325 316 309 303 303 311 335 339 339 339 337 334 331 308 307 302 302 302 301 300 300 300 298 297 299 301 300 303 296 292 288 287 291 292 292 294 296 294 294 294 294 295 295 296 296 297 296 294 293 294 296 296 294 297 297 297 296 305 306
318 318 317 318 319 319 319 319 320 320 320 321 320 320 321 321 321 322 322 322 323 323 323 324 324 325 325 325 327 319 311 301 299 304 310 335 337 340 339 336 333 326 308 306 302 303 300 300 299 301 298 298 293 301 300 300 298 296 294 289 290 292 293 295 295 294 294 294 295 294 293 294 295 294 297 295 294 295 296 297 296 297 298 298 298 296 303 304
318 318 317 317 318 319 319 319 320 320 320 320 321 321 320 321 321 321 322 322 322 322 323 323 324 325 324 325 325 314 304 292 299 305 312 336 339 340 338 336 333 314 308 307 305 303 301 300 298 299 298 293 294 294 296 297 298 296 296 294 294 292 293 296 296 295 294 293 294 292 292 295 296 298 295 295 293 294 297 300 296 297 298 298 299 299 301 303
318 318 317 317 318 318 319 319 320 320 321 320 321 321 320 321 321 321 321 322 322 322 323 323 324 323 324 325 315 309 299 289 302 307 334 336 338 338 336 334 328 310 311 305 304 302 302 300 299 296 294 294 292 292 290 297 301 294 293 295 295 295 295 295 295 296 293 294 294 293 295 295 296 295 294 295 296 299 301 301 301 299 299 300 298 297 298 298
317 317 317 317 318 318 318 319 319 320 320 321 321 321 321 321 321 321 321 321 322 322 323 323 323 323 323 323 311 302 298 296 300 308 333 338 339 335 335 332 322 307 306 306 302 302 299 297 297 294 293 294 291 291 293 296 298 297 294 291 295 296 296 296 297 294 292 292 294 295 293 293 294 294 294 294 299 299 301 301 301 300 299 298 297 298 298 299
317 317 317 317 317 318 318 319 319 320 320 321 321 321 322 322 321 321 321 321 322 322 322 322 322 322 322 311 309 299 299 299 303 314 331 335 329 327 320 310 309 306 305 303 300 300 298 297 296 295 293 292 291 293 294 295 294 295 293 291 293 294 294 294 291 292 294 294 294 293 293 296 294 294 295 297 299 301 301 300 299 299 298 296 295 297 297 297
318 317 318 318 317 317 318 319 319 320 320 321 322 322 322 322 322 321 322 322 322 321 322 322 321 321 321 310 300 299 298 305 309 318 324 321 318 312 308 309 308 306 304 301 301 299 300 296 296 296 293 293 294 295 293 294 289 291 292 293 292 293 292 293 293 294 294 296 295 294 295 296 294 294 294 298 299 301 300 297 296 296 296 297 296 296 295 296
318 318 318 319 318 318 318 319 319 320 321 321 322 322 322 322 322 322 322 322 321 321 321 321 321 321 311 304 299 296 302 313 324 325 320 318 315 311 309 307 306 304 304 303 300 301 300 297 300 299 296 297 296 295 293 293 290 294 292 292 292 293 292 293 293 297 295 294 295 294 295 295 293 295 291 293 297 299 296 296 296 295 296 296 295 296 295 295
318 318 318 319 319 318 319 319 320 320 321 321 322 322 322 322 322 322 322 321 322 321 321 321 323 317 307 307 298 294 306 317 318 321 318 314 312 308 309 308 305 306 303 302 302 301 300 299 300 300 301 295 296 293 294 294 295 294 294 292 293 292 293 293 293 294 294 295 292 293 292 293 290 293 293 298 299 298 295 296 296 295 293 294 295 295 295 297
318 318 318 319 318 319 319 320 320 320 321 322 322 322 322 322 322 322 321 321 321 321 320 321 321 313 309 303 299 298 308 312 318 319 316 312 310 308 309 306 306 306 304 302 304 305 304 302 301 300 294 299 292 295 294 293 296 294 293 291 290 291 292 294 293 294 294 293 292 292 292 291 291 290 296 298 297 296 294 295 295 294 293 293 293 295 298 298
318 318 318 319 319 319 319 320 320 321 321 321 322 322 322 322 322 322 321 321 321 320 321 321 318 313 304 294 297 306 307 310 316 315 315 309 308 309 309 307 306 305 305 304 303 305 304 302 301 299 297 296 293 293 295 296 294 294 292 291 290 288 289 294 294 293 293 292 291 293 285 285 289 293 296 297 295 294 294 295 296 295 294 294 294 297 298 299
319 318 319 319 320 320 321 321 321 321 321 322 322 322 322 322 322 321 321 321 322 320 321 322 312 310 300 293 300 308 309 313 314 314 314 311 310 308 308 308 306 304 306 303 304 302 305 301 301 301 300 298 295 299 296 291 291 291 289 290 287 285 284 290 293 292 292 293 291 294 286 285 289 293 294 294 293 293 293 294 294 295 294 294 295 297 297 297
319 319 319 320 321 320 320 320 321 321 321 321 321 322 322 321 322 321 321 320 321 321 321 320 309 301 295 297 305 308 324 311 312 311 311 309 307 306 307 307 305 302 303 304 306 305 302 304 302 299 297 297 297 294 288 287 286 287 287 283 282 285 285 290 295 293 292 292 290 292 285 288 292 293 295 296 293 293 293 294 294 294 293 294 296 296 296 296
319 319 319 320 320 320 320 320 320 320 321 321 321 321 321 322 321 320 320 318 318 321 314 309 309 303 296 294 304 317 308 305 306 307 309 310 307 307 306 304 305 302 303 303 302 301 300 300 298 294 296 296 293 283 284 285 284 284 287 281 283 283 284 289 293 291 292 292 293 291 287 285 290 290 293 295 294 294 293 292 293 293 293 295 296 295 295 295
319 319 319 320 320 320 320 320 319 320 320 321 321 321 322 322 318 320 321 321 316 315 312 307 309 307 296 303 308 303 303 304 307 309 307 307 308 305 303 303 302 301 300 301 301 301 299 300 297 296 294 291 288 287 284 281 282 283 284 285 284 285 285 285 290 293 290 291 289 290 288 286 290 291 294 296 296 293 293 292 292 293 294 295 294 294 294 294
320 319 319 320 320 320 319 319 319 320 321 321 320 321 317 321 321 320 317 316 314 311 309 313 306 300 298 302 299 301 305 304 307 307 306 306 305 303 300 300 298 297 298 297 299 297 297 295 292 290 290 290 290 286 283 281 285 282 284 284 285 285 285 287 287 290 292 291 290 287 288 288 290 292 293 296 296 293 293 293 292 294 294 294 294 293 293 292
320 320 320 320 320 319 319 319 320 320 321 321 321 320 321 321 312 311 312 313 305 301 297 297 298 293 292 299 302 302 307 308 307 307 306 307 306 302 301 299 299 298 295 293 293 295 293 291 290 288 286 286 288 289 288 289 288 288 288 287 285 284 285 287 289 290 292 290 289 288 290 292 290 291 293 296 296 294 294 293 292 294 294 293 293 292 292 292
320 321 321 320 319 319 319 320 321 321 321 318 316 312 309 305 302 303 304 308 303 301 302 300 301 298 301 304 305 304 307 305 304 303 306 305 305 302 301 299 298 295 293 292 292 292 294 287 285 285 288 290 291 291 291 292 290 289 288 287 286 285 286 289 289 294 292 290 287 290 289 286 289 291 294 297 296 294 293 291 293 294 293 293 292 292 292 291
320 320 320 319 319 319 320 321 321 321 321 318 314 308 303 299 298 297 300 302 303 304 303 304 302 302 303 305 302 302 301 302 301 302 304 306 301 302 297 297 293 292 290 292 292 294 294 287 286 289 291 292 292 291 290 289 288 288 286 284 285 284 286 289 291 291 292 290 285 285 288 289 291 293 295 296 294 293 292 291 293 292 293 292 292 291 291 291
320 320 319 319 319 320 321 321 321 321 321 316 310 304 303 303 305 306 303 299 303 304 304 306 306 305 308 308 305 304 306 303 300 302 305 305 301 299 296 294 290 291 291 291 290 289 287 286 290 292 293 292 291 290 289 289 288 287 286 285 284 286 287 290 290 290 290 292 288 285 288 289 291 293 295 292 292 292 293 292 292 292 291 291 291 291 290 290
320 320 319 320 320 321 321 322 321 321 316 308 305 303 303 306 306 305 302 296 297 302 302 302 302 303 305 306 303 305 302 300 301 301 302 303 298 298 295 293 290 290 291 291 289 284 284 285 291 294 292 290 290 290 289 288 288 286 286 284 285 287 286 283 286 288 290 290 288 287 286 287 289 292 291 293 292 292 292 292 291 292 291 290 290 290 290 289
319 319 320 320 321 321 322 321 321 315 307 305 304 304 307 304 303 305 301 295 294 299 301 302 302 303 300 303 304 303 302 300 301 300 304 301 298 296 294 293 291 290 290 290 291 289 289 291 294 293 290 290 290 290 288 287 285 286 288 287 286 286 286 287 287 288 288 288 287 286 286 284 287 291 289 291 291 291 291 291 291 291 291 291 290 290 290 289
319 319 320 320 320 321 320 321 312 310 308 306 304 306 305 304 303 303 300 293 292 295 303 303 304 302 302 306 303 302 300 300 300 300 303 301 296 296 294 295 292 289 291 291 290 288 289 293 294 291 289 289 289 288 289 288 285 285 286 289 289 288 287 286 287 287 282 283 284 286 279 277 282 285 288 289 289 289 289 289 289 289 290 289 289 288 289 289
319 319 319 320 320 320 321 313 309 310 308 306 307 307 305 303 302 304 295 287 286 291 299 296 305 300 305 300 300 300 301 297 299 298 303 300 301 297 296 294 294 289 290 290 290 288 291 294 294 292 290 288 288 288 287 290 285 285 287 288 290 288 287 286 286 285 280 279 286 285 281 275 279 285 287 287 287 287 288 288 288 288 288 288 288 288 288 287
320 319 320 320 320 321 315 307 310 311 308 307 308 306 305 305 306 304 296 287 284 293 295 301 299 299 302 298 299 300 289 289 299 298 298 300 299 300 293 291 293 294 293 292 289 288 291 291 290 290 290 288 286 287 288 290 287 284 285 287 287 287 286 285 284 285 282 281 283 285 285 280 277 283 288 287 287 286 286 287 287 287 287 287 287 287 287 287
320 320 319 320 321 320 314 310 312 310 308 309 307 305 305 304 304 303 292 281 281 298 293 296 299 303 300 297 298 296 294 296 292 296 297 298 299 296 295 289 292 291 292 290 285 288 291 289 288 288 288 287 288 290 288 291 288 285 287 286 286 287 286 284 285 282 282 282 278 279 283 280 276 282 285 287 285 284 284 285 285 286 286 286 286 286 286 286
319 319 319 319 320 321 318 315 311 310 309 307 306 305 307 304 303 294 286 279 294 293 303 294 304 299 295 297 295 292 292 292 290 294 297 299 299 296 291 291 291 290 290 292 288 287 290 293 290 290 288 287 288 287 288 292 288 289 287 286 285 285 284 282 279 283 281 280 275 280 282 278 277 280 282 284 284 283 284 285 285 285 286 286 285 285 286 286
316 317 318 319 319 318 316 316 313 313 311 310 309 307 306 304 300 291 285 281 296 288 294 296 295 291 292 291 291 293 291 290 292 294 295 294 295 296 295 295 291 290 290 286 288 289 291 292 293 291 289 289 287 289 288 290 290 288 287 286 284 282 281 280 279 277 278 273 277 281 282 283 276 280 282 283 284 285 285 284 285 285 285 285 285 285 285 285
312 314 318 319 316 316 316 312 314 311 311 310 310 309 307 302 292 286 281 290 296 294 295 293 290 294 290 288 287 291 290 290 292 291 291 294 293 292 292 291 290 283 283 283 285 287 288 290 290 289 292 290 289 288 287 286 287 288 285 283 284 282 278 276 273 276 274 271 276 279 282 282 275 277 281 284 286 287 286 284 284 284 284 284 284 285 285 285
310 312 314 314 313 313 313 311 312 311 310 310 311 309 304 289 293 284 284 299 288 291 289 289 291 289 289 290 287 288 287 290 290 290 288 286 286 288 287 284 285 280 280 281 283 283 286 288 288 290 292 292 289 287 286 284 284 286 283 281 277 274 273 273 271 273 272 274 278 278 281 280 280 283 283 284 284 285 286 286 284 284 284 284 284 285 285 285
309 311 313 311 312 313 313 312 311 311 310 311 309 303 293 287 280 287 286 290 288 294 292 294 291 291 290 289 288 289 289 287 289 289 288 287 286 288 287 287 285 287 283 281 282 281 284 283 288 288 291 291 290 286 283 285 284 283 284 279 274 271 271 267 268 267 269 274 277 280 282 279 279 282 283 283 284 285 286 286 285 285 284 284 284 284 284 284
308 308 307 308 309 312 312 311 311 311 311 310 303 296 290 284 281 293 290 291 293 297 296 293 292 291 291 288 288 289 287 289 289 288 290 286 286 283 286 288 288 288 288 282 283 280 277 279 284 288 286 289 291 291 288 281 282 284 283 285 281 274 268 269 267 273 274 275 276 278 277 272 277 281 282 284 283 284 285 285 284 284 284 284 283 284 284 283
309 306 307 308 310 311 312 312 311 312 310 306 299 292 285 283 285 285 285 290 292 295 294 295 292 289 289 289 290 292 292 290 288 287 286 286 283 281 283 286 288 288 284 284 283 280 282 282 285 288 288 289 289 289 287 284 284 283 282 283 279 280 279 278 272 269 269 273 274 275 276 277 279 283 284 283 284 284 284 284 284 283 284 283 283 284 284 284
308 306 308 305 306 310 312 311 311 312 308 302 294 288 285 287 283 287 289 296 296 293 293 293 290 288 284 283 286 290 294 290 289 287 285 285 285 284 284 285 288 291 288 285 283 281 282 280 284 287 287 287 287 288 291 287 281 283 284 280 282 282 284 275 275 277 274 272 275 273 280 281 282 283 282 283 283 282 282 282 282 283 283 282 282 283 283 283
301 305 302 304 305 309 312 312 312 309 307 300 291 285 290 289 289 289 296 294 295 294 292 288 286 288 284 284 285 289 292 293 288 286 285 285 286 287 286 288 290 290 293 291 286 285 282 280 283 286 287 288 286 287 287 286 286 284 280 282 283 286 284 280 274 271 272 273 274 276 275 276 279 274 280 281 280 281 281 282 282 283 282 282 283 283 283 283
300 301 301 301 306 311 312 312 312 308 304 298 289 290 289 289 294 295 295 296 295 294 290 287 286 290 284 285 284 285 289 289 284 286 281 284 285 289 287 288 291 290 291 291 288 286 284 280 283 285 285 287 285 289 287 287 287 284 282 283 286 278 278 279 273 271 270 268 270 272 277 278 279 280 278 279 280 281 281 281 281 282 283 283 283 283 284 284
299 298 294 301 304 312 312 312 311 307 301 294 288 288 291 292 295 295 298 297 296 294 290 290 289 290 289 284 285 286 288 285 285 283 284 284 284 288 290 289 289 290 290 290 287 284 286 281 280 286 286 287 285 284 280 283 287 286 286 285 283 280 275 275 279 273 275 273 275 270 279 277 280 278 281 282 282 282 282 281 282 283 284 285 284 284 284 284
296 294 292 304 305 311 312 312 307 304 297 288 289 289 291 290 294 296 296 296 294 293 289 288 289 287 287 287 286 286 286 286 284 284 285 285 287 292 290 293 289 291 289 290 287 289 286 284 275 281 282 285 283 284 282 283 281 284 282 280 282 277 281 279 278 275 276 274 276 277 275 276 280 283 282 284 283 283 283 283 284 285 286 286 285 285 285 285
296 292 293 304 308 313 312 306 299 295 292 291 291 289 291 291 295 294 296 297 295 298 293 290 289 288 288 286 288 285 287 285 284 284 285 284 287 283 289 292 291 290 289 288 288 284 280 282 281 277 281 281 279 283 284 283 284 281 282 279 281 278 278 277 277 280 276 280 275 277 276 281 284 287 285 284 284 284 285 285 285 285 285 285 286 287 286 285
290 284 290 305 308 312 304 293 292 293 289 288 288 291 290 298 293 292 295 296 296 293 296 294 291 290 288 289 286 287 286 284 284 285 285 287 288 288 289 289 290 290 288 284 285 288 285 282 278 278 280 283 284 289 286 287 286 285 286 284 283 281 280 275 275 277 276 278 280 277 276 275 285 284 284 285 286 286 286 286 286 286 286 286 286 288 286 287
289 287 303 306 306 309 297 289 292 291 289 290 293 292 294 292 290 292 293 294 292 294 292 292 292 291 289 291 289 288 288 286 285 285 284 286 285 288 289 288 289 289 286 286 288 288 291 279 279 280 281 281 283 283 285 285 289 286 285 282 284 283 283 282 281 280 276 278 278 277 277 281 285 285 284 285 286 286 287 286 287 287 288 286 285 285 285 285
291 295 298 305 307 305 292 284 284 287 289 290 290 289 293 292 291 290 290 291 293 291 291 291 292 294 291 291 290 289 290 286 287 287 286 285 287 289 287 288 291 288 290 288 288 286 282 282 283 277 278 279 278 280 281 285 283 281 280 280 283 282 282 280 278 278 276 280 280 274 272 279 284 284 283 283 285 286 286 286 287 287 286 286 286 285 285 285
291 294 296 299 304 302 290 289 285 286 288 287 287 286 287 289 290 293 292 291 293 291 291 289 293 292 291 291 289 290 290 290 285 286 286 285 286 287 287 287 289 288 289 289 293 289 284 281 281 275 275 273 270 267 267 275 281 280 281 281 282 282 280 277 274 277 276 281 282 278 278 284 286 285 284 285 284 284 286 285 284 283 283 284 283 283 282 281
287 282 292 294 300 298 297 297 294 289 284 286 286 287 288 286 288 291 293 291 294 292 292 290 289 292 289 288 287 287 287 288 288 282 285 285 285 285 287 285 287 287 290 293 288 285 278 281 282 282 280 278 279 274 279 280 280 278 277 280 280 280 280 279 276 276 276 279 276 277 278 279 280 282 282 284 281 282 281 280 282 282 280 280 280 280 280 280
287 283 288 285 295 295 293 295 292 292 286 289 283 287 285 287 288 289 293 288 292 293 291 291 289 288 286 287 285 286 286 287 287 285 284 284 286 284 286 285 287 288 292 289 287 279 277 278 281 280 279 280 280 279 281 282 279 279 278 281 281 280 276 276 277 275 279 275 274 280 279 276 280 283 282 279 278 278 278 278 279 279 280 280 280 280 283 279
282 284 290 293 290 286 288 289 293 291 290 290 285 289 285 285 286 285 290 291 291 292 290 287 289 291 289 288 285 283 284 284 285 283 284 282 284 286 286 286 285 287 287 285 284 283 281 279 279 282 280 280 281 281 280 280 280 280 280 280 280 282 275 273 270 279 277 276 276 280 277 276 278 280 280 279 280 280 280 282 282 280 280 279 279 280 280 279
285 284 286 289 285 285 291 292 293 291 290 291 288 290 286 286 285 287 287 288 289 288 291 285 285 288 289 288 288 284 284 281 282 283 282 280 279 280 280 283 286 283 282 284 284 282 277 272 277 278 277 276 278 279 279 279 277 278 278 279 280 279 277 277 277 279 278 276 278 278 277 277 280 281 280 282 282 281 279 278 277 279 279 279 279 278 278 277
283 283 281 285 284 284 288 292 292 291 288 290 286 288 289 287 284 286 287 288 284 286 289 287 286 284 288 287 288 286 284 286 284 284 281 282 279 280 279 281 282 284 282 282 284 283 284 277 281 274 273 271 272 278 278 276 276 274 276 277 277 277 277 277 278 277 277 275 277 277 276 277 282 281 281 279 277 276 276 276 277 277 277 277 277 276 276 276
285 285 285 283 282 282 285 288 289 289 287 288 286 288 289 289 287 287 285 289 288 286 288 288 288 284 284 285 287 287 287 285 282 285 284 285 284 282 284 281 284 281 282 279 281 280 281 274 273 270 269 265 268 273 275 271 273 272 274 275 276 275 273 275 274 277 275 274 276 274 272 275 280 279 277 275 275 276 276 275 275 275 275 276 275 275 275 275
284 284 285 282 280 286 284 282 286 287 283 288 288 288 288 288 287 287 284 286 285 288 289 290 287 288 285 284 285 287 287 284 285 283 284 283 284 282 282 282 284 282 278 280 279 278 279 275 273 269 270 266 269 270 272 270 269 270 272 276 276 276 277 277 277 277 278 278 273 270 273 279 279 280 278 276 275 274 274 275 275 275 275 275 275 275 275 275
Wind_Speed
6 6 6 6 6 6 7 7 7 8 8 8 8 9 9 9 9 9 9 9 10 10 11 12 11 12 12 12 12 11 10 1 1 0 2 7 4 5 10 4 11 10 7 3 3 4 1 2 1 4 3 2 2 1 1 1 1 2 1 4 1 3 1 4 4 3 0 1 4 5 1 1 3 3 3 3 3 1 4 6 5 3 6 5 4 3 3 4
5 5 5 5 6 6 6 6 7 7 7 7 8 8 9 9 9 10 9 10 10 10 11 11 12 13 13 13 12 11 7 1 3 4 8 3 6 7 6 7 11 12 7 3 5 3 5 0 1 2 2 0 1 0 1 1 1 2 1 1 5 5 6 4 2 3 0 4 4 4 4 3 4 1 2 3 6 4 7 10 1 5 8 8 8 4 2 4
4 4 5 5 6 6 6 6 7 6 6 6 7 7 8 9 9 9 10 10 10 10 11 11 12 13 13 13 13 11 5 3 2 1 1 3 2 4 6 9 11 12 5 3 4 7 5 4 4 3 1 0 2 1 2 1 1 2 3 3 5 8 5 5 4 7 3 3 4 5 3 1 3 0 0 2 7 6 9 12 9 3 9 7 7 4 0 4
4 4 4 4 5 6 6 6 6 6 6 6 7 7 8 8 9 9 10 10 11 11 11 12 12 13 13 14 13 8 1 2 1 2 1 3 3 2 5 8 10 7 3 5 5 3 2 4 3 4 1 0 3 1 1 3 1 2 2 4 5 4 2 6 5 6 5 3 4 5 5 6 5 4 0 2 6 9 10 9 9 11 11 10 7 5 2 4
3 4 4 4 5 6 6 6 6 7 7 7 7 8 8 9 9 10 10 11 11 11 11 12 13 13 14 14 14 2 3 3 1 1 2 2 2 3 4 6 7 3 3 2 3 3 3 2 3 1 1 2 1 1 3 2 2 4 7 5 5 1 1 8 7 6 2 5 3 4 5 6 1 1 2 2 5 10 9 13 5 8 9 9 10 8 3 5
3 3 4 4 5 6 6 6 7 7 7 8 8 8 9 9 9 10 10 11 11 11 11 12 13 13 13 14 6 1 2 1 1 1 2 1 4 4 5 6 6 3 0 2 1 0 3 2 3 1 0 0 3 4 3 2 2 4 3 4 5 5 5 2 1 3 4 5 5 6 3 3 1 5 3 5 10 10 12 11 12 7 8 9 6 6 5 5
2 3 3 4 5 6 6 7 7 7 8 8 8 8 9 10 10 10 11 11 11 11 11 11 12 13 14 9 0 2 2 5 2 4 3 4 4 6 7 7 7 4 3 1 0 1 1 2 2 2 3 0 3 3 5 0 1 4 7 1 5 4 8 7 5 6 5 5 7 3 4 6 3 10 1 4 11 12 14 12 11 11 7 6 7 7 8 8
2 3 3 4 5 6 6 6 7 7 7 8 8 9 9 10 10 10 11 11 11 11 11 11 10 11 10 2 0 1 2 5 8 2 1 6 6 6 8 4 4 4 4 4 5 2 2 3 4 2 1 5 2 4 1 1 1 5 4 3 4 0 4 4 5 7 8 9 7 4 6 14 3 5 3 14 15 13 14 5 8 9 7 4 4 8 7 8
3 4 4 3 5 6 6 6 7 7 8 8 9 10 10 10 11 11 11 12 12 12 10 9 9 7 4 1 3 1 5 4 3 2 3 6 5 5 4 2 1 5 3 2 1 3 4 4 1 4 4 1 2 1 2 1 7 4 5 0 2 3 4 6 7 8 9 7 2 5 13 13 5 4 5 17 17 16 6 4 5 6 8 9 6 5 5 6
4 4 4 3 4 6 6 6 7 8 8 9 10 11 11 11 11 12 12 12 11 10 9 7 7 5 3 2 3 1 5 2 2 3 4 6 5 5 6 2 4 4 3 0 4 3 3 3 3 3 3 1 2 2 1 3 4 1 2 2 3 7 5 5 5 11 5 5 4 5 14 13 2 2 7 4 12 7 4 6 6 3 7 8 6 7 6 7
5 5 5 5 5 6 6 7 8 8 9 10 10 11 11 12 12 12 12 12 10 9 6 5 1 1 1 1 5 6 3 2 0 3 5 6 7 5 1 3 3 4 2 1 1 3 3 2 3 3 0 3 1 2 0 2 0 1 1 5 6 5 6 7 7 14 3 6 3 8 8 6 3 2 9 11 10 2 5 7 8 7 3 6 6 6 6 9
6 6 6 6 6 6 7 7 7 7 9 10 10 11 11 12 12 12 12 10 8 4 3 3 1 1 1 2 4 6 2 2 1 3 4 4 3 4 3 5 2 3 4 2 0 1 3 2 5 1 2 0 1 1 1 1 0 2 4 5 7 6 7 10 6 4 2 4 2 6 1 7 1 4 13 13 6 4 5 9 9 6 3 3 4 8 9 7
7 7 7 7 6 6 6 6 7 9 9 10 11 11 12 12 13 12 10 6 4 3 1 1 4 1 1 0 8 6 2 2 4 6 2 2 2 1 2 1 4 2 3 2 1 0 1 3 3 1 2 2 1 1 1 1 2 2 2 0 8 4 7 12 0 1 0 4 4 5 4 6 8 11 11 10 5 6 8 9 8 4 3 3 6 8 8 10
7 8 8 9 8 8 8 8 9 9 10 11 11 12 12 13 12 10 5 5 4 1 3 5 3 1 1 4 4 2 3 0 5 5 2 0 3 2 1 3 3 2 1 4 1 1 0 1 3 1 1 1 2 1 2 4 2 2 2 1 4 4 5 7 0 1 4 2 5 3 4 7 10 12 9 7 4 3 6 8 6 5 5 5 7 8 8 8
5 7 10 9 10 7 7 9 9 10 11 11 12 13 13 12 9 5 3 1 2 2 5 5 1 1 1 6 3 4 3 1 2 3 3 4 3 0 0 1 3 3 1 4 1 1 2 2 2 1 1 0 1 2 4 3 3 1 2 5 3 3 7 10 9 3 2 2 2 4 3 8 9 11 13 10 4 1 6 7 6 6 5 7 6 7 7 7
7 10 10 11 8 8 8 9 10 10 11 12 13 14 11 10 4 2 1 2 1 3 2 0 0 1 1 4 1 2 1 1 3 2 1 3 4 1 1 4 1 3 2 3 2 2 4 3 1 3 1 2 1 3 3 5 4 3 3 3 4 1 5 8 4 1 5 2 1 5 6 3 6 6 10 11 6 6 6 5 6 6 7 6 6 6 5 7
10 11 10 9 9 10 10 10 11 11 11 12 14 13 8 5 3 2 2 3 2 2 0 0 0 0 1 1 1 0 3 3 1 1 1 0 3 4 4 3 1 1 4 4 5 4 3 1 1 2 2 1 3 5 1 3 6 4 0 5 4 4 2 3 8 4 3 1 1 1 2 6 7 9 13 17 9 6 6 5 4 6 6 6 6 7 8 8
10 10 10 9 10 11 11 12 12 12 11 12 12 7 2 5 5 2 2 2 1 1 1 1 1 1 7 1 2 3 1 2 0 1 2 1 3 5 3 2 1 4 2 2 3 2 2 1 3 5 1 1 2 3 4 7 6 4 2 3 6 2 4 7 2 3 4 1 1 3 5 8 10 11 13 16 10 4 5 4 3 7 7 6 7 8 8 9
10 10 9 8 10 11 12 12 12 12 11 11 7 3 6 6 2 1 1 1 1 1 1 2 3 4 3 2 3 4 1 2 1 3 2 1 1 3 3 3 5 4 1 2 2 2 1 3 4 2 5 3 6 9 11 11 5 7 7 6 3 4 5 6 6 5 2 4 4 5 9 9 7 8 11 14 7 5 5 3 5 8 7 7 7 7 7 7
9 8 8 9 10 11 12 12 12 12 12 7 3 0 1 1 1 0 1 0 3 5 1 3 5 3 5 3 2 0 0 3 3 2 0 1 3 2 2 2 3 5 4 3 0 2 2 4 6 7 9 10 10 13 13 10 4 3 1 1 6 6 7 6 5 9 1 2 5 8 5 3 7 9 12 16 6 5 6 4 8 7 7 7 7 8 8 9
7 7 10 10 11 11 12 12 12 12 12 4 1 1 2 4 2 3 2 6 4 4 5 5 11 8 7 3 1 3 3 1 1 0 1 1 3 6 2 2 1 0 2 3 4 1 2 5 6 10 11 12 13 10 5 3 2 5 5 4 8 4 11 5 5 3 1 2 3 1 1 6 8 9 15 9 8 7 7 4 9 8 8 7 7 7 8 6
7 9 11 12 12 12 12 11 13 12 9 2 1 2 0 1 0 0 1 3 2 5 6 10 0 5 5 6 3 3 3 1 1 1 1 2 2 5 1 4 3 6 1 3 2 2 3 7 10 15 14 5 3 1 5 7 6 3 5 5 3 8 4 8 8 3 2 0 7 1 2 7 10 12 10 9 7 7 9 8 6 9 9 7 6 7 7 7
8 9 12 11 11 12 11 11 10 12 3 1 1 2 1 0 1 1 2 2 5 3 3 5 5 8 7 1 1 2 4 6 6 3 5 4 2 4 5 4 4 4 2 5 7 3 3 5 15 15 3 4 5 4 4 3 1 3 3 2 8 3 2 6 4 3 3 1 3 2 5 7 8 7 9 9 7 9 10 13 12 10 10 8 6 5 6 7
9 11 11 11 9 12 9 9 11 4 1 3 3 2 1 1 2 1 1 2 3 6 4 4 3 1 4 1 1 3 6 3 2 4 3 5 8 3 3 7 6 3 7 9 10 11 12 9 8 6 4 6 7 7 4 4 6 4 6 7 6 4 5 8 6 2 3 2 1 3 4 6 6 10 4 4 4 9 9 9 11 9 8 5 5 8 7 8
12 13 12 10 10 7 5 7 2 0 0 2 1 1 0 1 2 2 1 2 1 5 2 0 2 1 1 1 1 3 2 0 3 0 1 4 5 3 4 2 3 7 7 8 5 5 8 10 1 1 3 4 5 7 8 4 3 3 6 10 9 6 6 4 2 2 6 3 2 2 5 3 4 5 6 3 3 8 4 9 8 7 6 4 7 7 6 7
13 13 12 10 8 5 3 2 1 1 2 1 1 1 0 2 3 2 2 3 4 4 2 4 1 1 1 0 2 2 3 2 0 1 1 2 2 2 0 1 3 6 7 2 6 4 8 6 5 6 4 5 5 7 3 7 6 0 6 7 10 6 4 2 1 2 1 2 1 3 0 6 6 3 1 4 5 6 4 7 6 5 5 5 5 5 6 6
14 13 12 10 8 5 2 2 1 2 2 2 2 2 2 3 1 1 1 2 3 4 3 0 1 1 1 1 0 2 2 3 0 2 1 2 1 1 2 4 1 1 2 2 2 6 1 2 3 4 5 5 4 6 5 9 6 4 2 3 4 5 3 2 2 2 4 1 5 1 3 6 3 7 5 6 6 5 5 4 5 4 5 5 4 4 5 6
14 14 13 11 11 11 2 1 2 2 2 1 3 3 3 3 3 1 2 2 3 0 1 1 0 1 1 0 3 1 1 0 2 1 0 2 1 2 1 3 5 5 1 3 6 4 2 0 3 5 5 6 8 6 3 9 7 4 2 6 3 3 3 4 1 2 1 1 7 3 1 1 4 7 3 3 6 1 3 4 3 4 4 4 4 4 4 5
10 12 12 12 12 13 1 2 2 3 1 3 4 4 4 3 2 3 2 2 3 2 4 2 2 1 1 1 1 1 0 1 1 0 2 1 3 2 1 4 2 2 1 3 7 3 3 1 4 7 6 7 4 1 4 10 5 3 3 4 6 5 4 3 2 2 1 1 6 5 4 4 7 5 2 1 0 5 4 4 3 3 4 3 3 3 4 4
6 7 9 9 7 4 1 1 1 0 3 4 4 4 4 2 2 2 2 5 1 1 1 1 2 2 2 3 0 1 1 1 2 1 2 2 2 2 0 1 2 0 3 3 2 7 3 3 5 4 5 4 4 1 1 2 1 4 4 2 3 6 2 2 6 3 3 4 7 10 7 6 5 5 5 6 5 4 7 3 3 2 3 3 3 3 2 3
5 4 7 12 6 3 5 3 2 3 4 4 4 4 3 1 2 3 7 3 2 1 1 0 2 2 4 4 2 0 1 0 0 1 1 1 1 2 1 0 3 3 2 3 5 5 3 1 0 2 2 3 4 3 4 1 1 3 1 2 4 4 7 3 3 4 1 7 6 3 6 5 5 5 3 3 6 7 13 12 10 8 4 3 3 2 2 2
4 5 5 4 2 1 4 3 3 3 5 5 3 3 2 1 2 6 4 1 0 2 3 1 0 3 4 0 3 4 4 0 1 2 4 3 3 4 4 5 4 1 2 3 5 3 3 7 2 3 3 7 1 2 2 4 3 5 4 5 2 4 6 3 2 2 5 6 1 2 6 2 8 6 1 6 7 3 4 10 11 9 6 4 3 3 1 1
5 3 7 4 0 3 2 1 1 3 4 2 3 1 3 4 6 3 2 1 1 1 3 3 3 3 3 3 2 2 1 3 1 2 4 0 3 5 3 2 2 1 2 1 2 3 6 2 1 4 3 3 6 5 2 0 1 6 5 5 5 0 1 3 5 1 5 7 4 4 1 2 3 3 5 4 5 2 9 8 7 8 8 6 4 2 1 1
8 5 4 2 3 1 1 1 3 3 4 2 3 4 4 3 4 4 5 3 2 0 1 1 1 2 3 5 2 5 0 2 6 3 3 1 2 1 4 5 4 1 1 1 1 3 2 4 5 5 3 1 5 7 8 5 7 8 3 9 8 8 4 4 4 6 6 7 2 3 1 5 1 2 4 2 3 4 5 7 5 4 4 4 3 2 2 1
9 7 3 1 2 1 2 1 3 1 1 2 2 3 6 5 0 4 4 3 2 0 1 0 2 1 1 0 1 3 3 0 3 3 3 5 4 3 4 4 5 4 1 2 4 2 6 6 4 2 1 1 7 0 5 5 3 2 3 5 4 6 5 7 5 3 2 3 4 1 4 2 2 0 1 3 4 5 4 5 5 5 3 3 3 3 3 2
4 4 4 3 2 0 3 3 2 2 2 4 3 3 8 4 4 2 2 3 0 1 1 1 2 1 2 2 2 2 3 1 1 3 1 4 2 4 3 3 6 12 7 6 4 3 1 3 1 5 3 1 1 1 0 3 5 2 5 4 6 3 4 1 2 0 2 2 8 2 3 1 1 1 3 2 5 3 3 4 4 4 4 2 4 3 3 3
6 1 4 1 1 0 2 3 2 2 3 3 2 6 4 2 4 2 3 1 2 2 1 2 3 5 2 4 3 3 3 2 2 3 4 1 4 6 3 4 2 4 8 7 3 3 3 5 1 3 1 1 0 0 2 4 3 6 2 7 1 1 2 3 4 3 0 5 7 1 4 2 1 6 2 2 4 4 4 5 4 3 2 4 5 4 4 3
3 2 2 1 2 2 3 2 2 2 3 3 7 5 2 3 3 5 1 0 1 2 1 4 4 7 4 4 3 4 1 7 2 3 3 4 3 3 3 2 0 3 2 0 4 2 4 4 3 0 1 4 3 0 2 1 1 2 2 1 1 3 1 2 4 4 3 5 5 4 3 4 8 6 3 6 9 9 8 4 4 5 5 6 5 5 4 1
3 3 1 3 1 5 3 3 1 3 3 6 6 6 3 5 1 6 8 3 1 2 2 3 4 3 4 3 3 1 4 5 3 4 3 2 3 2 2 4 0 1 1 6 2 1 1 3 5 0 2 1 1 4 5 3 2 1 1 1 0 2 2 2 4 3 2 6 4 4 5 8 3 4 13 13 13 11 8 5 7 8 7 6 5 4 3 3
4 3 4 0 2 3 5 5 2 3 4 9 6 7 2 2 5 5 3 4 4 4 4 3 4 4 2 5 4 4 2 4 5 5 3 2 4 1 1 3 4 0 4 0 2 0 1 1 4 1 3 1 2 2 6 7 5 1 1 2 0 0 2 3 1 4 4 3 5 8 9 3 2 3 7 11 11 11 11 10 8 7 7 6 4 4 3 3
1 2 1 1 2 6 6 4 3 9 7 2 1 3 2 4 0 3 8 8 3 1 4 4 5 8 4 2 7 1 1 4 3 4 4 2 5 3 0 2 0 2 1 3 2 0 1 0 6 1 0 3 5 4 5 4 5 5 7 6 7 4 1 2 9 2 1 5 5 6 13 4 0 0 4 5 8 10 9 10 8 7 6 6 5 3 4 4
5 2 2 1 2 9 9 6 3 1 2 7 8 5 3 4 3 2 0 2 7 4 1 2 3 5 4 6 3 4 3 3 4 4 3 6 2 3 1 3 2 1 4 3 4 1 3 2 2 5 6 7 4 1 1 2 2 1 5 4 5 3 4 2 8 5 0 4 1 2 4 4 1 4 1 7 12 13 11 8 7 6 6 6 4 4 4 5
3 2 3 3 2 8 6 4 2 4 6 4 2 2 1 1 2 3 5 1 2 4 2 3 5 4 4 3 2 3 4 3 5 5 3 3 3 1 2 4 3 4 4 1 2 2 6 2 1 5 4 3 4 4 3 2 2 1 1 2 2 4 5 7 5 2 3 1 3 1 6 1 1 2 1 7 8 8 7 7 7 6 5 5 4 4 6 4
2 4 3 2 1 3 5 9 8 10 9 2 1 3 1 2 3 2 4 4 4 2 5 3 2 5 4 2 2 3 3 4 3 4 3 2 1 1 4 3 1 1 2 4 5 3 2 3 5 1 4 5 4 2 3 2 3 1 2 1 1 2 3 2 3 0 1 4 4 2 10 3 1 0 2 3 4 5 5 6 4 4 3 5 7 6 5 5
5 2 2 0 1 3 9 3 4 8 9 9 4 4 3 1 5 6 5 4 3 3 2 3 5 3 3 2 2 1 4 7 3 1 1 0 2 2 5 6 4 3 1 2 2 3 3 4 5 3 9 10 8 4 3 4 6 1 1 1 1 4 3 2 2 2 5 2 7 6 9 3 2 1 0 0 4 6 5 3 2 1 4 5 5 5 5 5
2 3 2 1 5 4 3 1 2 1 3 5 6 7 4 5 2 3 7 3 5 2 3 2 1 1 3 2 3 4 4 1 6 2 3 2 0 2 2 6 3 1 1 4 2 2 2 0 4 8 9 12 9 3 3 1 1 2 2 2 5 2 2 2 2 1 5 3 4 6 6 4 4 5 3 6 3 6 5 4 4 4 4 4 4 5 5 6
1 5 6 6 3 7 7 4 5 3 4 4 4 3 9 12 4 2 7 3 5 4 1 4 3 4 3 3 4 4 3 3 0 1 2 4 0 1 3 3 3 5 3 2 2 4 2 1 5 4 6 5 1 2 3 2 2 3 4 8 7 6 3 5 7 6 3 2 11 9 6 5 12 12 7 4 4 5 5 5 6 7 6 8 8 5 6 5
3 3 3 3 5 10 11 9 13 9 4 2 4 1 3 5 7 6 1 4 0 4 7 1 4 6 6 7 4 4 3 4 4 5 2 0 3 0 1 3 2 4 3 1 1 3 4 4 2 4 6 2 1 3 3 2 4 5 8 9 12 11 3 5 4 7 7 10 15 8 3 6 7 9 5 4 7 7 8 10 8 5 4 4 5 6 5 5
1 1 2 1 2 3 13 4 11 14 12 8 2 3 4 5 7 7 3 1 3 3 8 7 5 7 7 6 7 6 5 5 5 0 3 2 3 3 1 2 2 2 1 1 2 1 4 2 1 1 2 2 0 1 2 3 2 2 7 11 11 7 4 5 9 11 10 8 8 7 6 11 10 12 5 7 5 5 4 2 3 5 6 7 6 5 5 5
4 2 3 2 1 1 3 5 7 11 12 13 8 9 5 4 5 2 1 4 3 4 1 8 5 5 8 9 9 9 6 7 7 7 3 4 1 2 3 4 2 1 1 2 1 2 4 4 6 1 1 4 4 2 2 2 4 6 10 12 10 5 5 11 10 7 5 6 12 12 11 14 15 4 5 3 1 3 4 4 5 5 5 6 6 5 5 6
1 0 1 4 4 3 2 5 7 10 9 9 12 9 5 9 8 3 1 1 3 2 3 10 7 4 1 5 7 10 5 5 4 5 8 8 8 6 7 4 5 4 3 1 1 1 2 4 4 2 1 4 1 1 2 1 3 5 11 16 12 9 10 10 8 8 7 12 9 3 5 12 13 4 0 1 3 5 7 5 5 5 5 5 6 6 5 5
1 2 1 1 2 3 6 2 4 5 12 12 10 10 8 9 4 4 3 2 1 0 1 3 5 6 0 2 9 9 6 5 6 3 6 3 4 3 2 2 6 7 4 5 0 3 3 5 3 2 2 4 3 1 1 2 5 10 18 18 13 15 12 6 8 8 10 6 5 7 11 11 9 5 3 3 5 4 5 6 5 4 4 4 5 5 4 3
Wind_Direction
41 35 31 29 28 26 28 27 26 25 20 17 12 10 9 7 4 2 359 354 351 351 343 339 340 336 333 332 332 331 339 64 5 20 354 239 240 194 178 111 150 148 150 95 73 96 24 15 54 351 26 50 298 43 274 39 67 55 97 116 265 198 147 215 195 187 200 262 280 319 258 209 302 323 285 353 308 317 300 292 273 304 263 232 261 83 115 152
44 32 26 20 19 22 21 18 23 21 11 9 7 1 357 357 357 352 352 348 347 344 342 338 335 335 332 330 331 337 341 63 301 288 242 297 324 180 166 142 146 145 128 90 135 135 114 263 269 56 73 51 308 117 13 250 79 113 114 101 224 188 239 158 208 220 355 268 260 264 290 191 259 130 296 345 290 332 326 287 242 279 284 293 292 307 127 141
39 34 21 13 14 13 19 15 14 11 7 2 1 353 351 351 349 347 345 344 341 341 340 336 334 332 332 331 329 340 348 343 359 337 303 3 183 172 150 149 153 159 145 158 196 146 150 188 174 105 20 87 351 194 42 265 131 231 124 233 247 211 238 227 227 267 189 243 283 299 287 190 256 198 282 252 292 321 287 286 313 256 270 276 275 314 95 169
27 20 13 3 7 10 5 6 2 359 360 356 347 350 345 344 343 344 339 338 339 338 337 336 332 332 331 329 332 328 32 23 331 246 295 326 118 131 151 154 155 153 87 70 151 136 120 88 106 129 84 119 296 41 130 251 103 269 96 191 229 219 208 268 255 237 253 190 289 290 297 324 282 225 98 271 345 294 277 255 228 268 275 279 272 258 220 203
16 12 357 354 5 356 356 353 352 351 350 348 347 343 345 339 340 339 337 336 337 335 336 333 334 331 331 328 330 351 42 51 260 228 270 262 89 97 131 139 143 132 97 142 106 65 106 137 102 48 92 219 347 22 249 248 185 115 209 209 210 100 230 258 253 271 279 298 294 285 328 263 319 347 227 200 236 269 275 284 216 231 259 271 286 282 178 206
350 4 342 346 352 350 347 345 347 345 346 344 344 341 338 337 336 334 335 333 331 331 331 333 331 331 329 324 350 25 67 360 244 276 147 108 102 100 112 117 117 115 101 36 121 48 135 25 92 106 330 87 211 164 267 160 155 239 297 258 238 229 239 259 283 280 7 313 304 299 255 334 359 285 250 234 229 252 257 262 282 260 255 263 268 279 267 230
336 333 332 334 339 343 343 340 340 342 339 339 339 338 334 335 331 332 329 329 325 326 328 330 330 330 331 323 177 68 151 254 323 261 120 107 104 105 104 107 108 96 107 124 48 139 121 93 116 198 102 19 284 193 255 143 210 196 249 254 281 227 236 264 294 305 289 247 264 236 347 298 296 301 238 250 252 240 263 274 282 284 279 280 284 268 259 263
313 306 308 323 330 334 333 333 336 334 334 334 334 334 332 331 331 326 325 321 322 319 323 325 327 327 356 29 40 7 51 251 249 337 189 103 94 102 98 70 101 100 115 173 157 146 122 135 178 143 131 159 223 157 276 333 122 197 254 265 264 349 237 257 256 276 269 268 263 299 292 271 232 251 346 273 274 274 264 282 282 292 306 294 260 276 278 278
283 298 302 324 321 326 325 329 334 334 330 332 331 329 330 326 326 323 319 319 317 315 314 320 320 333 324 69 115 6 266 238 237 174 116 106 109 102 106 119 106 128 155 107 123 167 140 247 182 181 245 207 210 225 294 177 304 207 218 200 275 264 285 275 295 271 263 274 255 326 279 280 278 221 244 251 266 261 292 328 296 318 317 312 301 282 282 290
269 286 295 291 316 315 321 325 327 325 324 325 325 325 321 322 319 320 315 313 309 307 304 313 317 324 38 90 52 158 263 273 43 115 103 115 104 99 40 134 126 122 118 181 105 107 168 211 164 190 133 167 143 222 156 130 229 195 254 244 284 285 319 297 263 282 289 261 247 245 275 278 352 87 287 274 243 270 352 306 302 317 297 302 315 317 349 355
265 273 282 297 301 303 312 320 318 317 319 318 317 315 317 314 315 313 313 309 306 298 296 289 343 12 98 110 129 220 254 40 60 109 111 114 108 123 197 141 161 138 127 60 168 176 208 167 196 104 36 223 124 280 169 229 166 156 239 321 315 324 292 262 270 270 327 298 182 188 250 283 288 132 238 260 264 1 328 308 306 313 306 302 307 13 31 42
258 259 271 287 284 288 300 302 304 306 307 310 311 311 310 311 312 313 314 312 305 298 280 292 199 108 86 90 189 217 348 249 128 125 124 121 111 189 217 181 163 153 154 197 296 259 187 187 126 132 214 59 275 309 296 255 9 316 39 327 293 345 328 283 264 285 129 267 172 157 328 309 165 218 239 247 283 335 318 296 296 304 337 297 325 49 48 35
250 256 260 273 271 286 286 285 298 306 310 311 312 310 310 312 311 312 312 319 303 292 308 109 110 71 111 318 234 239 322 321 116 108 85 69 93 78 79 120 152 156 170 153 191 254 220 148 127 118 216 118 178 257 213 45 304 340 13 291 319 347 322 283 261 289 154 250 132 147 300 273 269 239 260 277 305 319 317 294 294 338 13 355 47 68 52 34
226 252 261 260 277 266 267 288 301 306 309 313 313 312 311 310 309 305 308 299 310 328 192 142 99 83 94 244 262 254 288 160 104 96 180 200 135 293 19 14 90 86 94 104 164 190 130 102 126 162 114 144 279 281 26 333 13 247 253 71 252 343 268 285 74 304 334 234 168 137 202 277 278 286 276 276 273 262 277 283 315 346 356 26 73 69 61 41
230 253 252 264 263 276 294 299 302 305 309 312 311 311 311 308 304 298 303 19 81 131 141 93 41 83 79 265 252 293 261 101 142 226 195 133 142 16 280 22 56 38 92 123 140 152 138 70 68 45 253 276 37 25 330 6 344 338 32 298 331 174 276 302 301 204 220 314 140 119 276 239 269 285 291 289 314 273 283 303 335 343 18 66 74 69 58 49
240 243 252 254 273 292 296 299 301 306 310 311 312 310 304 297 292 247 2 246 179 120 55 38 4 102 88 296 212 353 59 147 242 231 232 130 150 179 177 117 107 24 44 1 36 45 34 90 93 195 301 350 89 91 21 18 335 341 173 270 285 200 261 347 291 59 239 189 27 155 228 331 302 266 299 291 302 301 295 328 321 17 62 69 59 55 51 37
235 246 253 264 277 289 295 300 303 308 311 314 316 310 288 254 181 168 54 48 61 79 69 149 162 48 181 231 89 247 219 236 294 69 126 131 143 149 111 71 81 75 37 30 22 59 345 71 294 42 28 163 140 102 49 353 292 297 316 217 214 227 267 247 301 327 32 90 217 306 241 239 261 298 296 295 292 319 322 317 345 68 82 72 67 57 49 44
232 245 256 266 277 289 296 299 306 308 312 321 321 309 266 167 158 145 49 39 68 125 266 218 157 346 282 54 224 230 125 136 246 182 74 281 128 126 100 104 56 84 59 37 357 92 317 84 39 197 350 45 120 96 151 234 212 237 285 262 292 271 232 242 283 265 1 6 274 313 271 267 268 283 285 279 297 340 302 325 73 108 95 78 71 64 55 50
234 246 257 267 284 289 294 297 302 309 317 328 324 76 95 112 70 118 117 162 105 359 9 227 128 155 210 239 278 17 57 246 98 101 198 119 49 106 69 80 93 109 126 89 267 108 1 59 25 50 232 154 202 185 196 222 197 231 229 238 218 269 277 254 240 274 251 288 298 277 271 288 295 282 278 283 303 336 323 50 90 97 91 81 73 65 59 56
233 243 261 273 282 286 289 294 300 311 328 335 6 3 71 22 4 300 340 14 225 192 172 201 223 265 313 271 220 268 140 41 117 298 117 317 110 105 35 86 37 59 109 197 228 233 125 136 172 199 223 215 213 205 211 224 217 252 254 213 254 250 269 269 272 257 107 333 242 248 275 266 276 278 280 281 342 346 354 57 97 99 92 81 75 70 64 55
226 245 257 266 271 272 278 290 304 312 324 323 293 102 193 179 126 268 288 250 232 268 268 245 201 212 230 104 127 127 142 294 60 2 225 136 103 115 241 76 42 131 257 173 148 269 98 184 231 223 220 216 218 219 232 278 246 228 252 266 274 243 259 248 260 285 307 165 285 319 324 292 281 287 282 315 359 4 333 97 102 96 81 71 68 66 58 58
223 236 248 251 257 266 280 290 307 311 314 204 166 140 164 174 118 217 106 312 316 247 224 248 48 268 280 268 203 160 77 296 258 287 286 140 159 157 282 116 153 200 191 109 44 85 167 194 230 230 227 236 284 178 186 202 233 208 208 231 271 260 265 281 268 320 261 38 265 3 335 286 286 281 319 16 53 28 21 72 82 92 82 70 59 62 60 51
221 231 242 244 251 264 277 295 305 311 322 71 66 90 143 248 25 19 92 116 267 263 224 244 236 234 273 263 228 126 212 207 244 202 197 133 83 210 147 140 178 196 130 167 170 158 224 279 245 243 206 206 266 231 192 214 172 200 248 227 239 241 330 302 285 335 335 89 276 347 313 277 288 283 55 31 62 60 52 60 58 53 68 62 53 54 61 58
225 234 240 242 249 257 283 306 302 310 19 132 104 141 286 89 87 71 64 224 274 301 211 227 181 202 215 162 241 142 179 240 166 245 236 138 157 186 130 173 187 158 206 193 190 184 205 216 225 239 178 180 225 253 226 224 257 236 214 233 251 248 222 192 252 307 292 360 61 2 312 315 253 258 66 39 39 66 51 60 62 57 58 64 70 61 49 61
223 230 233 238 239 254 277 307 345 144 178 54 27 259 266 97 88 130 79 329 2 283 220 71 145 229 215 33 6 163 229 344 217 293 193 144 148 97 229 179 109 213 209 205 210 244 273 261 74 132 157 174 201 259 245 151 240 289 227 207 224 225 231 256 329 19 16 334 330 62 346 304 305 297 157 169 52 58 28 62 54 51 48 43 54 53 48 52
223 228 228 226 228 223 267 336 255 165 101 192 215 184 101 82 85 91 96 72 304 262 354 222 106 263 84 357 10 178 81 230 165 235 98 209 159 150 104 200 153 224 220 184 200 203 220 236 166 212 170 182 191 217 246 148 209 280 273 195 217 215 213 157 99 62 294 205 293 59 35 270 318 310 136 154 96 72 54 58 58 50 47 43 48 47 42 38
220 224 221 213 206 178 98 223 194 109 106 268 219 149 119 80 124 98 38 337 330 220 152 264 77 237 91 272 117 113 115 265 335 27 42 330 146 304 149 238 12 346 166 156 43 266 169 298 201 203 183 174 187 258 230 164 144 229 248 138 128 124 151 183 105 155 227 265 302 333 158 262 299 275 269 144 102 102 77 67 63 60 57 50 48 45 45 38
216 217 212 200 196 184 213 133 109 171 201 185 115 112 92 115 86 84 80 353 278 316 98 243 162 312 89 307 54 141 199 357 81 244 146 307 88 4 110 217 170 191 181 93 203 259 159 192 167 189 196 203 222 221 191 163 150 215 204 145 138 157 170 122 103 161 216 15 287 312 355 307 249 257 322 163 128 156 132 123 110 94 75 55 43 38 43 45
197 201 202 195 192 204 247 175 156 195 187 148 113 100 102 80 107 97 123 123 243 77 255 65 267 35 6 18 45 53 337 16 138 261 313 34 47 142 234 234 165 205 287 180 216 288 301 194 217 162 150 216 218 257 177 165 187 264 162 92 66 62 66 111 112 91 346 58 260 235 189 229 274 268 334 347 134 189 179 144 124 116 112 103 83 47 38 31
147 182 195 190 163 162 202 76 234 127 109 105 110 110 83 100 86 98 129 226 53 252 144 183 131 216 83 107 302 356 102 330 129 336 38 146 319 32 348 132 138 175 250 359 281 233 254 307 155 122 199 208 146 136 140 227 168 112 91 66 3 41 42 28 63 93 49 259 247 218 200 179 290 271 201 155 214 169 132 111 119 102 90 84 80 83 69 53
100 96 182 172 173 192 135 181 197 157 114 98 111 103 121 57 142 156 209 218 55 207 50 124 189 64 119 122 183 281 96 190 320 73 75 18 8 45 21 16 38 51 33 349 289 311 333 341 165 256 97 95 111 85 21 52 62 118 82 114 32 336 5 30 342 39 149 268 260 239 186 159 182 288 308 274 320 164 159 159 159 151 147 139 117 92 71 61
58 85 89 154 211 63 151 187 161 152 122 122 123 101 135 85 336 191 208 39 121 222 152 215 247 146 176 154 121 172 178 306 221 123 152 167 151 156 202 161 174 78 325 219 254 9 280 228 248 309 219 142 128 94 329 17 12 83 86 48 102 266 30 312 22 285 209 226 260 126 133 52 248 221 333 338 357 34 98 142 150 147 151 145 131 124 108 98
41 67 99 48 80 85 63 114 125 135 110 103 105 82 89 152 225 170 289 220 246 96 254 108 191 158 167 114 251 202 192 169 221 197 119 111 134 248 256 180 187 191 241 248 241 11 278 290 309 259 343 208 133 147 202 173 225 116 151 139 89 229 229 253 265 226 308 289 259 135 185 265 242 297 15 348 345 24 118 127 138 145 148 152 151 147 121 52
74 44 64 341 45 52 85 104 123 117 107 117 101 63 65 172 236 232 220 217 206 323 31 100 64 77 125 168 236 155 146 252 145 210 153 180 112 247 292 241 165 262 149 158 190 203 316 341 281 150 220 263 167 193 184 167 160 205 121 150 182 150 150 250 200 233 232 225 284 266 62 231 155 205 335 9 20 60 87 110 119 120 136 149 158 158 172 150
109 87 94 25 54 27 108 103 119 106 94 93 71 125 181 211 95 185 244 278 282 288 151 3 116 91 300 348 285 219 168 280 158 112 170 133 224 178 191 226 208 128 142 115 257 78 213 218 256 274 260 123 180 337 118 98 65 176 159 83 86 234 145 229 199 160 234 311 321 207 197 206 140 21 32 53 59 60 75 96 109 117 128 138 144 172 186 194
76 15 51 28 359 283 129 117 104 56 88 80 97 195 211 174 195 169 231 181 198 136 227 44 81 113 251 314 316 199 314 177 252 126 265 187 217 193 224 207 168 184 158 175 194 209 65 274 290 319 52 118 189 156 205 133 206 223 101 193 211 170 122 28 341 347 83 42 258 146 307 315 181 107 54 70 82 55 75 99 119 145 170 173 183 201 203 192
76 53 52 1 302 219 133 118 114 77 61 104 140 233 188 281 188 187 277 174 221 139 144 184 258 163 223 228 225 208 234 77 245 134 247 164 297 206 230 249 142 200 207 147 271 181 185 252 291 101 217 346 214 131 90 27 146 97 170 240 176 145 104 127 219 323 57 225 268 65 218 291 128 286 119 114 112 172 166 174 170 197 192 188 209 203 205 189
81 60 58 302 234 173 134 147 99 54 79 151 216 222 196 211 248 203 210 346 357 28 100 166 277 160 242 187 255 199 255 163 255 124 227 185 240 162 125 161 336 184 245 264 167 274 113 308 291 296 174 296 358 65 10 353 36 145 190 229 126 249 250 315 90 263 266 253 266 288 258 241 188 222 136 218 178 189 188 191 190 206 215 213 216 228 230 216
71 81 348 257 261 162 138 145 106 120 142 214 216 221 234 220 196 210 222 221 116 97 210 236 197 233 162 188 220 207 160 180 201 181 127 238 176 190 161 157 111 190 326 150 145 251 19 213 296 323 130 318 12 82 213 242 334 46 31 24 197 104 183 153 201 193 149 274 290 278 275 263 204 206 187 194 188 178 170 179 210 205 207 207 215 216 206 187
91 64 270 252 273 161 145 134 124 150 179 219 188 215 167 200 231 238 276 199 242 196 236 218 224 256 225 221 162 179 258 169 159 226 143 263 181 309 148 17 160 155 65 19 138 80 193 106 243 282 303 42 177 168 209 176 173 141 95 292 325 7 224 104 343 142 186 217 219 276 275 274 264 199 179 201 176 173 170 180 202 216 221 223 220 204 192 180
24 98 240 47 162 144 128 104 160 200 207 262 175 224 184 232 205 231 221 212 230 258 192 198 184 214 214 232 267 182 197 181 183 183 186 274 167 256 169 144 200 153 55 28 77 54 87 161 221 309 12 200 239 241 183 168 165 164 164 206 173 119 184 239 259 85 136 215 236 245 261 273 257 324 222 187 156 153 186 182 199 215 217 220 223 204 178 186
119 160 249 20 211 161 141 141 224 164 195 212 218 177 229 200 255 239 303 246 213 245 20 232 237 215 211 222 177 192 173 207 212 193 249 187 252 163 209 73 157 174 126 183 178 226 150 147 98 241 193 204 210 66 226 156 126 164 145 244 158 155 115 134 247 237 48 261 226 208 303 264 278 284 204 149 153 172 180 183 197 212 211 215 217 196 194 186
145 193 4 329 298 185 140 195 174 197 223 246 70 302 199 294 185 208 202 183 203 205 246 220 206 200 250 192 230 200 172 233 174 216 198 191 236 201 272 323 221 57 92 345 57 238 80 100 307 288 297 311 330 319 35 57 146 346 313 66 137 200 191 199 222 193 212 306 230 244 240 188 306 341 81 145 159 168 178 184 190 217 210 207 183 188 182 170
105 117 141 273 272 207 168 193 200 208 222 304 177 247 206 215 175 229 200 218 187 193 199 211 334 215 242 164 154 204 197 233 233 167 278 193 172 109 1 347 40 169 113 224 141 254 87 276 131 287 314 317 344 349 2 348 51 128 200 268 160 105 79 132 87 78 142 210 222 183 256 243 239 99 27 87 129 170 184 225 211 234 208 190 188 185 172 163
119 40 44 320 302 195 198 220 189 202 210 215 207 227 233 239 219 192 172 214 201 189 148 250 211 147 211 164 191 202 234 207 274 276 114 134 183 5 337 37 328 160 93 298 158 136 164 186 125 182 232 253 258 208 249 245 208 234 227 278 247 140 148 93 251 195 225 209 202 225 249 242 155 101 81 229 159 190 237 261 291 225 203 186 189 175 168 161
171 140 191 66 197 262 266 84 356 148 172 191 225 235 182 234 300 234 171 242 183 214 218 183 358 157 172 138 190 200 228 295 189 222 142 191 303 337 323 349 44 140 168 84 38 72 168 143 171 197 211 238 243 197 251 115 49 179 267 176 257 216 197 138 118 155 199 265 256 238 215 254 264 235 206 232 200 203 244 278 268 255 229 216 185 171 171 177
32 130 158 186 129 247 238 182 223 181 208 173 188 191 197 214 200 273 180 223 220 175 246 187 193 160 252 151 195 214 210 227 313 181 189 157 238 233 331 78 29 36 12 76 358 81 79 185 241 201 229 238 158 168 211 137 196 248 263 271 254 239 177 155 182 213 178 125 256 236 222 192 248 256 238 198 229 260 266 256 252 244 223 184 183 173 184 182
144 249 144 219 145 194 197 219 209 211 218 184 227 74 204 189 193 210 198 208 164 204 201 319 183 213 180 182 151 207 189 206 181 216 85 113 96 322 63 356 58 311 24 40 12 121 146 205 273 129 260 193 165 147 169 152 203 204 224 234 247 252 157 184 211 213 183 215 252 259 146 193 253 250 242 188 206 221 239 252 250 228 173 155 144 156 171 192
122 312 205 286 172 270 207 198 175 203 206 208 271 213 232 172 203 203 179 188 192 240 195 230 215 194 189 175 171 221 168 190 245 324 173 172 188 138 177 339 266 18 63 42 25 141 85 264 176 88 236 312 345 147 242 179 243 257 241 239 243 243 215 187 229 233 214 237 257 265 269 256 251 260 279 265 247 223 220 199 113 127 159 157 152 158 172 197
205 143 237 3 81 26 193 172 176 195 215 208 222 224 202 206 206 236 308 166 214 235 169 218 214 193 194 186 185 211 203 193 175 205 221 130 237 156 214 189 156 13 59 149 127 304 105 268 101 289 71 285 310 259 255 190 204 255 262 254 245 236 235 227 236 252 242 265 255 257 265 271 266 252 243 278 91 102 105 140 156 156 148 154 158 171 190 202
241 124 161 129 172 234 110 170 176 194 211 202 221 226 186 218 227 170 217 215 175 202 190 213 190 168 229 199 215 219 195 182 178 206 186 171 196 211 144 268 139 155 131 137 149 289 78 236 67 85 72 300 311 146 261 17 337 267 274 269 261 248 251 244 233 221 206 228 239 238 244 253 266 264 232 96 153 161 164 160 152 170 172 156 169 191 203 221
62 308 83 100 155 196 157 193 156 146 219 213 207 214 208 223 190 175 266 313 93 339 194 165 178 142 145 160 218 217 206 168 157 157 131 74 98 69 76 154 142 153 173 163 246 138 170 136 140 109 172 255 262 145 221 7 3 310 260 251 248 246 236 252 252 228 217 198 194 213 234 236 247 259 236 243 193 193 157 173 172 192 206 188 197 205 210 221